Location: Home
(42.5358°N, 72.7383°W)
Time: 08:56:27
(UTC-04:00)

A-11 Canister half - Pass Details

Date: 30 June 2022
Orbit: 1514 x 1685 km, 47.2° (Epoch: 15 August)

Event Time Altitude Azimuth Distance (km) Brightness Sun altitude
Rises 01:52:37 0° 272° (W) 4,934 11.5 -22.9°
Reaches altitude 10° 01:55:52 10° 275° (W) 3,937 11.0 -22.8°
Maximum altitude 02:05:57 68° 358° (N) 1,757 9.4 -22.3°
Drops below altitude 10° 02:15:44 10° 81° (E) 3,823 11.4 -21.7°
Sets 02:18:50 0° 84° (E) 4,785 11.9 -21.5°
